User: anonymous   Login
Location: Oberwangen
(47.4286°N, 8.9679°E)
Time: 19:38:11
(UTC+00:00)
Language:

Cosmos 1869 - Orbit

View from above orbital plane
View from above orbital plane
View from above satellite
View from above satellite

Ground track
Ground track

The orbit data is extracted from the following two-line orbital elements,

1 18214U 87062A   21271.51502365  .00000477  00000-0  28198-4 0  9999
2 18214  82.5001   7.1254 0031537 308.2888  51.5505 15.08677695843043
Epoch (UTC): 28 September 2021 12:21:38
Eccentricity: 0.0031537
inclination: 82.5001°
perigee height: 518 km
apogee height: 562 km
right ascension of ascending node: 7.1254°
argument of perigee: 308.2888°
revolutions per day: 15.08677695
mean anomaly at epoch: 51.5505°
orbit number at epoch: 84304

The dashed part of the orbit path shows where the satellite is in the earth's shadow,  

DLR